Huntingburg, IN

4:20 PM EDT on June 25, 2017 (GMT -0400)
Huntingburg

Weather History for KHNB - February, 2014

Change the Weather History Date:

Monday, February 10, 2014

  Actual Average Record
Temperature  
Mean Temperature 12 °F -  
Max Temperature 19 °F 43 °F 66 °F (1999)
Min Temperature 6 °F 28 °F 6 °F (2011)
Degree Days  
Heating Degree Days 52    
Moisture  
Dew Point 4 °F    
Average Humidity 65    
Maximum Humidity 79    
Minimum Humidity 53    
Precipitation  
Precipitation 0.00 in - - ()
Sea Level Pressure  
Sea Level Pressure 30.37 in    
Wind  
Wind Speed 9 mph (NNW)    
Max Wind Speed 13 mph    
Max Gust Speed 17 mph    
Visibility 10 miles    
Events      
Averages and records for this station are not official NWS values.
T = Trace of Precipitation, MM = Missing Value Source: NWS Daily Summary

Daily Weather History Graph

Daily Weather History Graph

Search for Another Location

Airport or City:

Trip Planner

Search our weather history database for the weather conditions in past years. The results will help you decide how hot, cold, wet, or windy it might be!

Date:

Astronomy

Feb. 10, 2014 Rise Set
Actual Time 7:43 AM EST 6:20 PM EST
Civil Twilight 7:16 AM EST 6:48 PM EST
Nautical Twilight 6:45 AM EST 7:19 PM EST
Astronomical Twilight 6:14 AM EST 7:49 PM EST
Moon 2:50 PM EST (2/10) 4:35 AM EST (2/10)
Length of Visible Light 11h 31m
Length of Day
10h 36m
Waxing Gibbous, 84% of the Moon is Illuminated
Feb 10
Waxing Gibbous
Feb 14
Full
Feb 22
Last Quarter
Mar 1
New
Mar 8
First Quarter

Hourly Weather History & Observations

Time (EST) Temp. Windchill Dew Point Humidity Pressure Visibility Wind Dir Wind Speed Gust Speed Precip Events Conditions
12:15 AM 19.4 °F 7.2 °F 12.2 °F 74% 30.30 in 10.0 mi North 11.5 mph - N/A   Mostly Cloudy
12:35 AM 19.4 °F 9.5 °F 10.4 °F 68% 30.30 in 10.0 mi North 8.1 mph - N/A   Mostly Cloudy
12:55 AM 19.4 °F 7.2 °F 10.4 °F 68% 30.29 in 10.0 mi North 11.5 mph 17.3 mph N/A   Overcast
1:15 AM 19.4 °F 8.6 °F 10.4 °F 68% 30.29 in 10.0 mi North 9.2 mph - N/A   Overcast
1:35 AM 19.4 °F 10.4 °F 10.4 °F 68% 30.29 in 10.0 mi North 6.9 mph - N/A   Overcast
1:55 AM 19.4 °F 10.4 °F 10.4 °F 68% 30.30 in 10.0 mi North 6.9 mph - N/A   Unknown
2:15 AM 17.6 °F 5.0 °F 8.6 °F 68% 30.30 in 10.0 mi North 11.5 mph - N/A   Unknown
2:35 AM 17.6 °F 5.7 °F 8.6 °F 68% 30.31 in 10.0 mi North 10.4 mph - N/A   Overcast
2:55 AM 17.6 °F 6.4 °F 8.6 °F 68% 30.31 in 10.0 mi North 9.2 mph 16.1 mph N/A   Overcast
3:15 AM 17.6 °F 5.0 °F 8.6 °F 68% 30.31 in 10.0 mi North 11.5 mph - N/A   Overcast
3:35 AM 17.6 °F 7.3 °F 8.6 °F 68% 30.31 in 10.0 mi North 8.1 mph - N/A   Overcast
3:55 AM 17.6 °F 5.0 °F 6.8 °F 63% 30.30 in 10.0 mi North 11.5 mph 17.3 mph N/A   Overcast
4:15 AM 17.6 °F 7.3 °F 6.8 °F 63% 30.32 in 10.0 mi North 8.1 mph - N/A   Overcast
4:35 AM 17.6 °F 6.4 °F 6.8 °F 63% 30.31 in 10.0 mi North 9.2 mph - N/A   Overcast
4:55 AM 17.6 °F 6.4 °F 6.8 °F 63% 30.29 in 10.0 mi North 9.2 mph - N/A   Overcast
5:15 AM 17.6 °F 7.3 °F 6.8 °F 63% 30.31 in 10.0 mi North 8.1 mph - N/A   Overcast
5:35 AM 17.6 °F 8.2 °F 8.6 °F 68% 30.33 in 10.0 mi NNW 6.9 mph - N/A   Overcast
5:55 AM 15.8 °F 2.1 °F 6.8 °F 68% 30.33 in 10.0 mi North 12.7 mph 17.3 mph N/A   Overcast
6:15 AM 15.8 °F 4.2 °F 6.8 °F 68% 30.33 in 10.0 mi North 9.2 mph - N/A   Mostly Cloudy
6:35 AM 15.8 °F 4.2 °F 6.8 °F 68% 30.35 in 10.0 mi North 9.2 mph - N/A   Partly Cloudy
6:55 AM 15.8 °F 6.1 °F 6.8 °F 68% 30.36 in 10.0 mi North 6.9 mph - N/A   Clear
7:15 AM 15.8 °F 6.1 °F 6.8 °F 68% 30.35 in 10.0 mi North 6.9 mph - N/A   Clear
7:35 AM 15.8 °F 4.2 °F 6.8 °F 68% 30.36 in 10.0 mi North 9.2 mph - N/A   Clear
7:55 AM 14.0 °F 1.2 °F 6.8 °F 73% 30.36 in 10.0 mi North 10.4 mph - N/A   Clear
8:15 AM 14.0 °F 3.9 °F 6.8 °F 73% 30.37 in 10.0 mi North 6.9 mph - N/A   Partly Cloudy
8:35 AM 14.0 °F 2.0 °F 6.8 °F 73% 30.37 in 10.0 mi North 9.2 mph - N/A   Mostly Cloudy
8:55 AM 12.2 °F -0.2 °F 6.8 °F 79% 30.38 in 10.0 mi North 9.2 mph - N/A   Partly Cloudy
9:15 AM 12.2 °F 0.7 °F 6.8 °F 79% 30.39 in 10.0 mi NNW 8.1 mph - N/A   Clear
9:35 AM 12.2 °F 1.7 °F 5.0 °F 73% 30.39 in 10.0 mi North 6.9 mph - N/A   Clear
9:55 AM 14.0 °F 2.9 °F 6.8 °F 73% 30.39 in 10.0 mi North 8.1 mph - N/A   Clear
10:15 AM 14.0 °F 2.0 °F 6.8 °F 73% 30.40 in 9.0 mi NNW 9.2 mph - N/A   Clear
10:35 AM 12.2 °F -1.0 °F 5.0 °F 73% 30.41 in 10.0 mi NNW 10.4 mph - N/A   Clear
10:55 AM 14.0 °F 2.0 °F 5.0 °F 67% 30.41 in 10.0 mi NNW 9.2 mph - N/A   Clear
11:15 AM 12.2 °F -0.2 °F 5.0 °F 73% 30.42 in 10.0 mi NNW 9.2 mph - N/A   Clear
11:35 AM 12.2 °F -0.2 °F 3.2 °F 67% 30.42 in 10.0 mi NW 9.2 mph - N/A   Clear
11:55 AM 14.0 °F 1.2 °F 3.2 °F 62% 30.42 in 10.0 mi NNW 10.4 mph - N/A   Clear
12:15 PM 14.0 °F 2.9 °F 3.2 °F 62% 30.42 in 10.0 mi North 8.1 mph - N/A   Clear
12:35 PM 15.8 °F 4.2 °F 3.2 °F 58% 30.41 in 10.0 mi NNW 9.2 mph - N/A   Clear
12:55 PM 14.0 °F 1.2 °F 3.2 °F 62% 30.40 in 10.0 mi North 10.4 mph - N/A   Clear
1:15 PM 15.8 °F 4.2 °F 5.0 °F 62% 30.40 in 10.0 mi NNW 9.2 mph - N/A   Clear
1:35 PM 15.8 °F 3.4 °F 3.2 °F 58% 30.39 in 10.0 mi North 10.4 mph - N/A   Clear
1:55 PM 15.8 °F 2.7 °F 3.2 °F 58% 30.39 in 10.0 mi NNW 11.5 mph - N/A   Clear
2:15 PM 15.8 °F 2.7 °F 5.0 °F 62% 30.38 in 10.0 mi NW 11.5 mph - N/A   Clear
2:35 PM 15.8 °F 4.2 °F 5.0 °F 62% 30.37 in 10.0 mi NNW 9.2 mph - N/A   Clear
2:55 PM 15.8 °F 2.1 °F 5.0 °F 62% 30.38 in 10.0 mi NNW 12.7 mph - N/A   Clear
3:15 PM 15.8 °F 6.1 °F 3.2 °F 58% 30.37 in 10.0 mi NNW 6.9 mph 17.3 mph N/A   Clear
3:35 PM 15.8 °F 5.1 °F 3.2 °F 58% 30.37 in 10.0 mi NW 8.1 mph - N/A   Clear
3:55 PM 17.6 °F 6.4 °F 5.0 °F 58% 30.38 in 10.0 mi NW 9.2 mph - N/A   Clear
4:15 PM 15.8 °F 3.4 °F 3.2 °F 58% 30.37 in 10.0 mi NNW 10.4 mph - N/A   Clear
4:35 PM 15.8 °F 4.2 °F 5.0 °F 62% 30.37 in 10.0 mi NNW 9.2 mph - N/A   Clear
4:55 PM 17.6 °F 6.4 °F 3.2 °F 53% 30.38 in 10.0 mi NNW 9.2 mph - N/A   Clear
5:15 PM 15.8 °F 4.2 °F 3.2 °F 58% 30.38 in 10.0 mi NNW 9.2 mph - N/A   Clear
5:35 PM 15.8 °F 3.4 °F 3.2 °F 58% 30.38 in 10.0 mi NW 10.4 mph - N/A   Clear
5:55 PM 15.8 °F 4.2 °F 3.2 °F 58% 30.39 in 10.0 mi NNW 9.2 mph - N/A   Clear
6:15 PM 14.0 °F 1.2 °F 1.4 °F 57% 30.40 in 10.0 mi NNW 10.4 mph - N/A   Clear
6:35 PM 12.2 °F -1.0 °F 1.4 °F 62% 30.41 in 10.0 mi NNW 10.4 mph - N/A   Clear
6:55 PM 12.2 °F 0.7 °F 1.4 °F 62% 30.41 in 10.0 mi NNW 8.1 mph - N/A   Clear
7:15 PM 12.2 °F 0.7 °F 1.4 °F 62% 30.42 in 10.0 mi NNW 8.1 mph - N/A   Clear
7:35 PM 12.2 °F -0.2 °F 1.4 °F 62% 30.42 in 10.0 mi NNW 9.2 mph - N/A   Clear
7:55 PM 10.4 °F -1.5 °F 1.4 °F 67% 30.42 in 10.0 mi NNW 8.1 mph - N/A   Clear
8:15 PM 10.4 °F -2.4 °F -0.4 °F 62% 30.42 in 10.0 mi North 9.2 mph - N/A   Clear
8:35 PM 10.4 °F -4.1 °F -0.4 °F 62% 30.42 in 10.0 mi NNW 11.5 mph - N/A   Clear
8:55 PM 10.4 °F -1.5 °F -2.2 °F 57% 30.42 in 10.0 mi North 8.1 mph - N/A   Clear
9:15 PM 10.4 °F -3.3 °F -2.2 °F 57% 30.41 in 10.0 mi North 10.4 mph - N/A   Clear
9:35 PM 8.6 °F -4.7 °F -2.2 °F 62% 30.42 in 10.0 mi North 9.2 mph - N/A   Clear
9:55 PM 8.6 °F -3.7 °F -2.2 °F 62% 30.43 in 10.0 mi North 8.1 mph - N/A   Clear
10:15 PM 8.6 °F -4.7 °F -2.2 °F 62% 30.43 in 10.0 mi North 9.2 mph - N/A   Clear
10:35 PM 8.6 °F -4.7 °F -2.2 °F 62% 30.42 in 10.0 mi North 9.2 mph - N/A   Clear
10:55 PM 8.6 °F -4.7 °F -2.2 °F 62% 30.43 in 10.0 mi North 9.2 mph - N/A   Clear
11:15 PM 6.8 °F -6.9 °F -2.2 °F 67% 30.43 in 10.0 mi North 9.2 mph - N/A   Clear
11:35 PM 6.8 °F -5.9 °F -4.0 °F 61% 30.43 in 10.0 mi North 8.1 mph - N/A   Clear
11:55 PM 6.8 °F -8.6 °F -4.0 °F 61% 30.42 in 10.0 mi North 11.5 mph 16.1 mph N/A   Clear